User: anonymous   Login
Location: Maiden
(35.5760°N, 81.2120°W)
Time: 05:46:05
(UTC-04:00)
Language:

Cosmos 2151 - Orbit

View from above orbital plane
View from above orbital plane
View from above satellite
View from above satellite

Ground track
Ground track

The orbit data is extracted from the following two-line orbital elements,

1 21422U 91042A   15212.87065482  .00000522  00000-0  49780-4 0  9999
2 21422 082.5012 179.3144 0016042 068.1107 292.1816 14.91252856306197
Epoch (UTC): 31 July 2015 20:53:44
Eccentricity: 0.0016042
inclination: 82.5012°
perigee height: 583 km
apogee height: 605 km
right ascension of ascending node: 179.3144°
argument of perigee: 68.1107°
revolutions per day: 14.91252856
mean anomaly at epoch: 292.1816°
orbit number at epoch: 30619

The dashed part of the orbit path shows where the satellite is in the earth's shadow,  

DLR